This is the latest recevied weather packets stored in our database for station/object KC3WWU. If no packets are shown the sender has not sent any weather packets the latest 10 day(s).
| Time | Temp. | Humidity | Pressure | Rain* | Wind** | Luminosity | Snow |
|---|---|---|---|---|---|---|---|
| 1778123537 | 6.67° C | 86% | 1010.6 hPa | 0 mm | - | 0 W/m² | - |
| 1778123234 | 7.22° C | 89% | 1010.4 hPa | 0 mm | - | 0 W/m² | - |
| 1778122932 | 7.22° C | 87% | 1010.4 hPa | 0 mm | - | 0 W/m² | - |
| 1778122628 | 7.22° C | 85% | 1010.3 hPa | 0 mm | - | 0 W/m² | - |
| 1778122326 | 7.22° C | 82% | 1010.7 hPa | 0 mm | - | 0 W/m² | - |
| 1778122024 | 7.22° C | 81% | 1010.3 hPa | 0 mm | - | 0 W/m² | - |
| 1778121721 | 7.78° C | 80% | 1010.3 hPa | 0 mm | - | 0 W/m² | - |
| 1778121416 | 7.78° C | 79% | 1010 hPa | 0 mm | - | 0 W/m² | - |
| 1778121113 | 7.78° C | 79% | 1010.2 hPa | 0 mm | - | 0 W/m² | - |
| 1778120811 | 7.78° C | 79% | 1010.2 hPa | 0 mm | - | 0 W/m² | - |
| 1778120506 | 7.78° C | 81% | 1010 hPa | 0 mm | - | 0 W/m² | - |
| 1778120202 | 7.78° C | 82% | 1009.8 hPa | 0 mm | - | 0 W/m² | - |
| 1778119893 | 7.78° C | 83% | 1009.7 hPa | 0 mm | - | 0 W/m² | - |
| 1778119592 | 7.78° C | 80% | 1009.8 hPa | 0 mm | - | 0 W/m² | - |
| 1778119287 | 7.78° C | 82% | 1009.6 hPa | 0 mm | - | 0 W/m² | - |
| 1778118986 | 7.78° C | 85% | 1010 hPa | 0 mm | - | 0 W/m² | - |
| 1778118683 | 7.78° C | 88% | 1010 hPa | 0 mm | - | 0 W/m² | - |
| 1778118379 | 7.78° C | 89% | 1009.9 hPa | 0 mm | - | 0 W/m² | - |
| 1778118075 | 7.78° C | 93% | 1009.7 hPa | 0 mm | - | 0 W/m² | - |
| 1778117772 | 7.78° C | 91% | 1009.7 hPa | 0 mm | - | 0 W/m² | - |
| 1778117469 | 8.33° C | 93% | 1009.7 hPa | 0 mm | - | 0 W/m² | - |
| 1778117167 | 8.33° C | 93% | 1009.9 hPa | 0 mm | - | 0 W/m² | - |
| 1778116862 | 8.33° C | 91% | 1010.2 hPa | 0 mm | - | 0 W/m² | - |
| 1778116561 | 8.33° C | 92% | 1010.2 hPa | 0 mm | - | 0 W/m² | - |
| 1778116256 | 8.33° C | 92% | 1010.3 hPa | 0 mm | - | 0 W/m² | - |
* Rain latest hour (hover to see other rain measurements)
** Current wind speed in m/s (hover to see current wind gust speed)